Regional Weather Roundup
Issued by NWS

Home | Current Version | Previous Version | Graphics & Text | Print | Product List | Glossary On
Versions: 1 2 3 4 5 6 7 8 9 10 11 12 13 14 15 16 17 18 19 20 21 22 23 24 25 26 27 28 29 30 31 32 33 34 35 36 37 38 39 40 41 42 43 44 45 46 47 48 49 50
000
ASUS43 KLSX 280007
RWRMO

WEATHER SUMMARY FOR MISSOURI
NATIONAL WEATHER SERVICE SPRINGFIELD MO
700 PM CDT MON APR 27 2015

NOTE: "FAIR" INDICATES FEW OR NO CLOUDS BELOW 12,000 FEET WITH NO
       SIGNIFICANT WEATHER AND/OR OBSTRUCTIONS TO VISIBILITY.
       CURRENT SKY AND/OR WEATHER CONDITIONS ARE NOT AVAILABLE FOR
       CHILLICOTHE AND FARMINGTON.

MOZ001>031-035>038-043-044-053-054-280100-
...NORTHERN AND WESTERN MISSOURI...

CITY           SKY/WX    TMP DP  RH WIND       PRES   REMARKS
KANSAS CTY INT PTSUNNY   63  36  36 NE9       30.05F
6HR MIN TEMP:  62; 6HR MAX TEMP:  66;

KANSAS C DTWN  PTSUNNY   64  36  35 NE8       30.04F
6HR MIN TEMP:  64; 6HR MAX TEMP:  68;

LEE`S SUMMIT   MOSUNNY   63  36  36 NE10      30.05F
6HR MIN TEMP:  61; 6HR MAX TEMP:  67;

ST JOSEPH      PTSUNNY   65  33  30 NE9       30.07S
6HR MIN TEMP:  64; 6HR MAX TEMP:  69;

CHILLICOTHE      N/A     66  37  34 NE8       30.08R
6HR MIN TEMP:  65; 6HR MAX TEMP:  69;

KIRKSVILLE     SUNNY     62  39  42 NE9       30.08S
6HR MIN TEMP:  62; 6HR MAX TEMP:  66;


$$
MOZ066>068-077>081-088>096-101>105-280100-
...SOUTHWEST MISSOURI...

CITY           SKY/WX    TMP DP  RH WIND       PRES   REMARKS
SPRINGFIELD    CLOUDY    62  33  33 NE12G22   29.98R
6HR MIN TEMP:  62; 6HR MAX TEMP:  65;

JOPLIN         CLOUDY    62  36  37 NE9       29.98R
6HR MIN TEMP:  62; 6HR MAX TEMP:  65;


$$
MOZ032>034-039>042-045>050-055>058-069>072-280100-
...CENTRAL MISSOURI...

CITY           SKY/WX    TMP DP  RH WIND       PRES   REMARKS
COLUMBIA       MOCLDY    64  36  35 NE9       30.04S
6HR MIN TEMP:  61; 6HR MAX TEMP:  67;

JEFFERSON CITY MOCLDY    65  33  30 NE10      30.03F
6HR MIN TEMP:  62; 6HR MAX TEMP:  68;

SEDALIA        PTSUNNY   63  38  39 E7        30.05F
6HR MIN TEMP:  63; 6HR MAX TEMP:  69;

WHITEMAN AFB   MOSUNNY   63  38  40 NE6       30.03F
WARRENSBURG    MOSUNNY   63  36  36 NE7       30.04F
OSAGE BEACH    SUNNY     64  34  32 NE13      30.01F

$$
MOZ051-052-059>065-280100-
...EAST CENTRAL MISSOURI...

CITY           SKY/WX    TMP DP  RH WIND       PRES   REMARKS
ST LOUIS INTL  MOCLDY    64  36  35 NE10      30.04S
6HR MIN TEMP:  63; 6HR MAX TEMP:  67;

SPIRIT OF STL  MOCLDY    61  36  39 NE9       30.03S
6HR MIN TEMP:  61; 6HR MAX TEMP:  66;

ST CHARLES     MOCLDY    62  36  37 NE8       30.04R
6HR MIN TEMP:  62; 6HR MAX TEMP:  67;


$$
MOZ072>076-082>087-097>100-106>115-280100-
...SOUTH CENTRAL AND SOUTHEAST MISSOURI...

CITY           SKY/WX    TMP DP  RH WIND       PRES   REMARKS
CAPE GIRARDEAU MOCLDY    62  40  44 NE13      29.98S
6HR MIN TEMP:  62; 6HR MAX TEMP:  67;

FARMINGTON     MOCLDY    61  37  41 NE10      30.05R
6HR MIN TEMP:  61; 6HR MAX TEMP:  64;

POPLAR BLUFF   CLOUDY    62  39  42 NE8       29.97R
6HR MIN TEMP:  62; 6HR MAX TEMP:  66;

WEST PLAINS    CLOUDY    61  32  33 E7        29.99R
6HR MIN TEMP:  60; 6HR MAX TEMP:  66;


$$



USA.gov is the U.S. government's official web portal to all federal, state and local government web resources and services.